This demonstration page uses our WeatherBlox Daily Observations layout. Learn more.

Left ArrowRight Arrow

38.83388, -104.82136

Hourly Observations for March 1, 2018

Temp ( °F °C ) Dew Point ( °F °C ) Humidity (%) Winds ( mph kmh ) Pressure ( in mb ) Visibility ( mi km ) Precip ( " mm )
12:58 am 00:58 Mostly Clear 29 -1.8 18 -7.8 64 64 S 13 20 29.78 1009 10 16 0.00 0.00
1:58 am 01:58 Clear 27 -2.8 18 -7.8 69 69 N 5 7 29.79 1009 10 16 0.00 0.00
2:58 am 02:58 Clear 24 -4.2 18 -8 75 75 Calm 29.78 1009 10 16 0.00 0.00
3:58 am 03:58 Clear 24 -4.5 17 -8.1 76 76 NNW 7 11 29.79 1009 10 16 0.00 0.00
4:58 am 04:58 Clear 23 -5.2 17 -8.2 80 80 Calm 29.84 1011 10 16 0.00 0.00
5:58 am 05:58 Clear 22 -5.7 17 -8.1 83 83 Calm 29.88 1012 10 16 0.00 0.00
6:58 am 06:58 Sunny 22 -5.5 18 -8 83 83 Calm 29.89 1012 10 16 0.00 0.00
7:58 am 07:58 Sunny 26 -3.6 19 -7.2 76 76 Calm 29.88 1012 10 16 0.00 0.00
8:58 am 08:58 Sunny 29 -1.8 20 -6.9 68 68 ESE 3 6 29.87 1012 10 16 0.00 0.00
9:58 am 09:58 Sunny 32 -0.1 20 -6.4 63 63 ESE 5 7 30.12 1020 10 16 0.00 0.00
10:58 am 10:58 Sunny 37 2.9 22 -5.7 54 54 SE 8 13 29.82 1010 10 16 0.00 0.00
11:58 am 11:58 Sunny 40 4.7 21 -5.9 47 47 SE 10 17 29.80 1009 10 16 0.00 0.00
12:58 pm 12:58 Sunny 42 5.5 19 -7.2 40 40 SE 13 20 29.76 1008 10 16 0.00 0.00
1:58 pm 13:58 Sunny 44 6.9 15 -9.5 30 30 SE 15 24 29.73 1007 10 16 0.00 0.00
2:58 pm 14:58 Mostly Sunny 42 5.7 11 -11.6 28 28 SE 18 30 29.74 1007 10 16 0.00 0.00
3:58 pm 15:58 Mostly Cloudy 43 6 13 -10.5 30 30 SSE 14 22 29.74 1007 10 16 0.00 0.00
4:58 pm 16:58 Mostly Sunny 43 5.9 11 -11.6 27 27 S 9 15 29.75 1007 10 16 0.00 0.00
5:58 pm 17:58 Clear 44 6.8 9 -12.8 23 23 SSW 8 13 29.73 1007 10 16 0.00 0.00
6:58 pm 18:58 Partly Cloudy 45 7.2 6 -14.6 20 20 SSW 8 13 29.71 1006 10 16 0.00 0.00
7:58 pm 19:58 Clear 43 6.2 7 -14 22 22 SSE 5 7 29.71 1006 10 16 0.00 0.00
8:58 pm 20:58 Clear 40 4.7 6 -14.3 24 24 SE 13 20 29.68 1005 10 16 0.00 0.00
8:59 pm 20:59 Clear 41 5 5 -15 22 22 SSE 14 22 29.68 1005 10 16 0.00 0.00
9:58 pm 21:58 Clear 40 4.5 6 -14.5 24 24 SSW 3 6 29.70 1006 10 16 0.00 0.00
10:58 pm 22:58 Clear 42 5.7 6 -14.3 22 22 N 3 6 29.67 1005 10 16 0.00 0.00
11:31 pm 23:31 Clear 43 6 9 -13 24 24 NNE 14 22 29.64 1004 10 16 0.00 0.00
11:33 pm 23:33 Clear 43 6 9 -13 24 24 W 16 26 29.64 1004 10 16 0.00 0.00
11:58 pm 23:58 Clear 42 5.7 8 -13.5 24 24 NNW 10 17 29.62 1003 10 16 0.00 0.00

Powered by AerisWeather